Location: Goettingen
(51.5300°N, 9.9433°E)
Time: 09:45:52
(UTC+02:00)

ISS - Pass Details

Date: 11 May 2025
Orbit: 416 x 419 km, 51.6° (Epoch: 18 May)

Event Time Altitude Azimuth Distance (km) Brightness Sun altitude
Rises 23:47:39 0° 262° (W) 2,357 0.2 -17.7°
Reaches altitude 10° 23:49:44 10° 262° (W) 1,494 -0.8 -17.8°
Maximum altitude 23:53:06 89° 177° (S) 422 -3.9 -18.0°
Enters shadow 23:55:11 21° 84° (E) 986 -2.0 -18.1°
